VKG030 EKRN-LGRP

Flight info

Callsign VKG030
Flight time 2h 56m
Altitude 35000
Route GOSOT DCT PIXOR DCT REGLI DCT BILNA DCT PARAK DCT NISVA DCT NIKTI DCT MES UN139 LURUS UL995 CODIC
Aircraft A321/M-SDE2E3FGHIRWY/LB1

Departure

Time 2026-05-06 08:29
Airport Bornholm Airport (EKRN)

Arrival

Time 2026-05-06 11:25
Airport Rhodes International Airport "Diagoras" (LGRP)
Time Latitude Longitude Altitude Speed Heading
2026-05-06 08:22 55.06900 14.74892 52 ft 0 kts 113°
2026-05-06 08:24 55.06899 14.74895 52 ft 1 kts 117°
2026-05-06 08:24 55.06886 14.74905 51 ft 2 kts 180°
2026-05-06 08:24 55.06868 14.74894 51 ft 3 kts 206°
2026-05-06 08:25 55.06854 14.74858 50 ft 4 kts 262°
2026-05-06 08:25 55.06858 14.74810 50 ft 3 kts 287°
2026-05-06 08:25 55.06867 14.74767 50 ft 3 kts 289°
2026-05-06 08:25 55.06867 14.74719 50 ft 4 kts 258°
2026-05-06 08:26 55.06852 14.74672 49 ft 5 kts 231°
2026-05-06 08:26 55.06821 14.74625 48 ft 6 kts 220°
2026-05-06 08:26 55.06794 14.74562 46 ft 6 kts 238°
2026-05-06 08:26 55.06762 14.74497 45 ft 7 kts 218°
2026-05-06 08:27 55.06724 14.74475 44 ft 4 kts 173°
2026-05-06 08:27 55.06696 14.74508 45 ft 3 kts 130°
2026-05-06 08:27 55.06682 14.74550 45 ft 5 kts 118°
2026-05-06 08:27 55.06665 14.74612 45 ft 0 kts 114°
2026-05-06 08:28 55.06648 14.74679 45 ft 26 kts 114°
2026-05-06 08:28 55.06475 14.75369 48 ft 94 kts 113°
2026-05-06 08:28 55.06132 14.76729 55 ft 148 kts 114°
2026-05-06 08:28 55.05672 14.78531 364 ft 168 kts 112°
2026-05-06 08:29 55.05133 14.80426 926 ft 178 kts 114°
2026-05-06 08:29 55.04568 14.82355 1517 ft 189 kts 114°
2026-05-06 08:29 55.03954 14.84458 1968 ft 202 kts 114°
2026-05-06 08:29 55.03006 14.86412 1992 ft 233 kts 144°
2026-05-06 08:30 55.01431 14.87491 2270 ft 256 kts 168°
2026-05-06 08:30 54.99632 14.87642 2889 ft 261 kts 179°
2026-05-06 08:30 54.97788 14.87497 3412 ft 267 kts 180°
2026-05-06 08:30 54.95941 14.87303 4053 ft 268 kts 180°
2026-05-06 08:31 54.94066 14.87107 4596 ft 270 kts 180°
2026-05-06 08:31 54.92188 14.86917 5183 ft 271 kts 180°
2026-05-06 08:31 54.90326 14.86975 5726 ft 269 kts 168°
2026-05-06 08:31 54.88503 14.87648 6289 ft 268 kts 165°
2026-05-06 08:32 54.86685 14.88364 6832 ft 270 kts 165°
2026-05-06 08:32 54.84831 14.89089 7374 ft 271 kts 166°
2026-05-06 08:32 54.83000 14.89803 7894 ft 274 kts 166°
2026-05-06 08:32 54.81134 14.90530 8417 ft 276 kts 167°
2026-05-06 08:33 54.79259 14.91259 8911 ft 279 kts 167°
2026-05-06 08:33 54.77351 14.92002 9410 ft 282 kts 167°
2026-05-06 08:33 54.75423 14.92757 9862 ft 286 kts 168°
2026-05-06 08:33 54.73458 14.93548 10083 ft 299 kts 167°
2026-05-06 08:34 54.71381 14.94402 10309 ft 312 kts 167°
2026-05-06 08:34 54.66994 14.96187 10741 ft 336 kts 167°
2026-05-06 08:34 54.64691 14.97112 10995 ft 346 kts 167°
2026-05-06 08:35 54.62321 14.98058 11467 ft 349 kts 168°
2026-05-06 08:35 54.59968 14.98996 11961 ft 351 kts 168°
2026-05-06 08:35 54.57588 14.99939 12444 ft 353 kts 168°
2026-05-06 08:35 54.55167 15.00890 12927 ft 356 kts 168°
2026-05-06 08:36 54.52776 15.01817 13430 ft 358 kts 168°
2026-05-06 08:36 54.50332 15.02751 13936 ft 361 kts 169°
2026-05-06 08:36 54.47898 15.03665 14474 ft 362 kts 169°
2026-05-06 08:36 54.45406 15.04583 14981 ft 364 kts 169°
2026-05-06 08:37 54.42952 15.05470 15478 ft 366 kts 169°
2026-05-06 08:37 54.40464 15.06357 15959 ft 368 kts 170°
2026-05-06 08:37 54.37965 15.07240 16432 ft 369 kts 170°
2026-05-06 08:37 54.35460 15.08125 16886 ft 372 kts 170°
2026-05-06 08:38 54.32919 15.09030 17360 ft 373 kts 170°
2026-05-06 08:38 54.30373 15.09951 17809 ft 375 kts 169°
2026-05-06 08:38 54.27822 15.10897 18251 ft 377 kts 169°
2026-05-06 08:38 54.25242 15.11884 18695 ft 379 kts 169°
2026-05-06 08:39 54.22664 15.12891 19142 ft 381 kts 168°
2026-05-06 08:39 54.20083 15.13891 19656 ft 381 kts 168°
2026-05-06 08:39 54.17507 15.14881 20127 ft 382 kts 168°
2026-05-06 08:39 54.14891 15.15878 20600 ft 384 kts 168°
2026-05-06 08:40 54.12298 15.16828 21056 ft 385 kts 169°
2026-05-06 08:40 54.09677 15.17733 21477 ft 387 kts 169°
2026-05-06 08:40 54.07008 15.18622 21912 ft 389 kts 169°
2026-05-06 08:40 54.04353 15.19500 22330 ft 391 kts 169°
2026-05-06 08:41 54.01698 15.20394 22763 ft 393 kts 169°
2026-05-06 08:41 53.99011 15.21329 23174 ft 395 kts 169°
2026-05-06 08:41 53.96341 15.22284 23608 ft 397 kts 169°
2026-05-06 08:41 53.93612 15.23264 24013 ft 400 kts 169°
2026-05-06 08:42 53.90892 15.24258 24405 ft 402 kts 169°
2026-05-06 08:42 53.88171 15.25286 24795 ft 404 kts 168°
2026-05-06 08:42 53.85413 15.26385 25048 ft 410 kts 168°
2026-05-06 08:42 53.82645 15.27548 25465 ft 413 kts 168°
2026-05-06 08:43 53.79837 15.28711 25881 ft 414 kts 168°
2026-05-06 08:43 53.77037 15.29833 26178 ft 417 kts 169°
2026-05-06 08:43 53.74195 15.30943 26513 ft 419 kts 169°
2026-05-06 08:43 53.71358 15.32031 26798 ft 421 kts 168°
2026-05-06 08:44 53.68510 15.33109 27103 ft 423 kts 168°
2026-05-06 08:44 53.65641 15.34186 27395 ft 424 kts 169°
2026-05-06 08:44 53.62776 15.35253 27653 ft 427 kts 169°
2026-05-06 08:44 53.59863 15.36333 27930 ft 428 kts 169°
2026-05-06 08:45 53.56969 15.37401 28238 ft 430 kts 169°
2026-05-06 08:45 53.54075 15.38680 28485 ft 435 kts 161°
2026-05-06 08:45 53.51262 15.40702 28829 ft 437 kts 157°
2026-05-06 08:45 53.48532 15.42888 29099 ft 439 kts 156°
2026-05-06 08:46 53.45757 15.45144 29328 ft 443 kts 156°
2026-05-06 08:46 53.43002 15.47384 29710 ft 441 kts 156°
2026-05-06 08:46 53.40229 15.49631 29998 ft 442 kts 156°
2026-05-06 08:46 53.37497 15.51840 30298 ft 441 kts 156°
2026-05-06 08:47 53.34704 15.54093 30643 ft 440 kts 156°
2026-05-06 08:47 53.31978 15.56286 30941 ft 440 kts 156°
2026-05-06 08:47 53.29212 15.58507 31247 ft 439 kts 156°
2026-05-06 08:47 53.26485 15.60693 31538 ft 439 kts 156°
2026-05-06 08:48 53.23716 15.62908 31827 ft 438 kts 156°
2026-05-06 08:48 53.20981 15.65094 32223 ft 435 kts 157°
2026-05-06 08:48 53.18285 15.67243 32550 ft 434 kts 157°
2026-05-06 08:48 53.15545 15.69421 32819 ft 434 kts 157°
2026-05-06 08:49 53.12843 15.71567 33110 ft 433 kts 158°
2026-05-06 08:49 53.10127 15.73721 33376 ft 432 kts 158°
2026-05-06 08:49 53.07395 15.75885 33626 ft 432 kts 158°
2026-05-06 08:49 53.04680 15.78033 33746 ft 435 kts 158°
2026-05-06 08:50 53.01967 15.80177 34019 ft 434 kts 158°
2026-05-06 08:50 52.99227 15.82339 34218 ft 434 kts 158°
2026-05-06 08:50 52.96521 15.84472 34402 ft 434 kts 158°
2026-05-06 08:50 52.93781 15.86628 34550 ft 434 kts 158°
2026-05-06 08:51 52.91054 15.88772 34670 ft 433 kts 158°
2026-05-06 08:51 52.85636 15.93020 34750 ft 435 kts 158°
2026-05-06 08:52 52.80144 15.97315 34750 ft 434 kts 158°
2026-05-06 08:52 52.74695 16.01566 34751 ft 433 kts 158°
2026-05-06 08:53 52.69288 16.05773 34749 ft 427 kts 158°
2026-05-06 08:53 52.63914 16.09940 34752 ft 428 kts 158°
2026-05-06 08:54 52.58529 16.14104 34751 ft 429 kts 158°
2026-05-06 08:54 52.53137 16.18263 34751 ft 428 kts 158°
2026-05-06 08:55 52.47762 16.22398 34751 ft 428 kts 158°
2026-05-06 08:55 52.42364 16.26539 34751 ft 429 kts 159°
2026-05-06 08:56 52.36982 16.30656 34751 ft 430 kts 159°
2026-05-06 08:56 52.31564 16.34791 34751 ft 429 kts 159°
2026-05-06 08:57 52.26166 16.38898 34751 ft 429 kts 159°
2026-05-06 08:57 52.20757 16.43003 34751 ft 430 kts 159°
2026-05-06 08:58 52.15354 16.47092 34751 ft 430 kts 159°
2026-05-06 08:58 52.09924 16.51191 34751 ft 430 kts 159°
2026-05-06 08:59 52.04509 16.55267 34751 ft 430 kts 159°
2026-05-06 08:59 51.99077 16.59345 34751 ft 430 kts 159°
2026-05-06 09:00 51.93693 16.63376 34751 ft 430 kts 159°
2026-05-06 09:00 51.88277 16.67419 34751 ft 429 kts 159°
2026-05-06 09:01 51.82866 16.71443 34750 ft 428 kts 160°
2026-05-06 09:01 51.77472 16.75446 34752 ft 431 kts 160°
2026-05-06 09:02 51.72037 16.79470 34773 ft 430 kts 161°
2026-05-06 09:02 51.66608 16.83480 34778 ft 432 kts 161°
2026-05-06 09:03 51.61135 16.87513 34777 ft 432 kts 161°
2026-05-06 09:03 51.55682 16.91521 34778 ft 432 kts 161°
2026-05-06 09:04 51.50235 16.95513 34778 ft 432 kts 161°
2026-05-06 09:04 51.44774 16.99505 34778 ft 432 kts 161°
2026-05-06 09:05 51.39312 17.03487 34778 ft 432 kts 161°
2026-05-06 09:05 51.33840 17.07466 34778 ft 432 kts 161°
2026-05-06 09:06 51.28411 17.11403 34778 ft 432 kts 161°
2026-05-06 09:06 51.22935 17.15365 34778 ft 431 kts 161°
2026-05-06 09:07 51.17491 17.19291 34778 ft 431 kts 161°
2026-05-06 09:07 51.12037 17.23215 34778 ft 431 kts 161°
2026-05-06 09:08 51.06614 17.27107 34777 ft 433 kts 161°
2026-05-06 09:08 51.01089 17.31058 34778 ft 437 kts 161°
2026-05-06 09:09 50.95576 17.34995 34777 ft 436 kts 161°
2026-05-06 09:09 50.90067 17.38919 34778 ft 435 kts 161°
2026-05-06 09:10 50.84581 17.42815 34778 ft 435 kts 161°
2026-05-06 09:10 50.79048 17.46734 34778 ft 435 kts 161°
2026-05-06 09:11 50.73562 17.50610 34778 ft 435 kts 161°
2026-05-06 09:11 50.68039 17.54503 34777 ft 434 kts 161°
2026-05-06 09:12 50.62552 17.58359 34778 ft 434 kts 161°
2026-05-06 09:12 50.57057 17.62211 34778 ft 434 kts 161°
2026-05-06 09:13 50.51543 17.66066 34778 ft 434 kts 161°
2026-05-06 09:13 50.46059 17.69887 34778 ft 433 kts 162°
2026-05-06 09:14 50.40590 17.73690 34832 ft 433 kts 162°
2026-05-06 09:14 50.35072 17.77515 34832 ft 437 kts 161°
2026-05-06 09:15 50.29520 17.81356 34831 ft 438 kts 161°
2026-05-06 09:15 50.23963 17.85193 34831 ft 437 kts 161°
2026-05-06 09:16 50.18412 17.89015 34832 ft 439 kts 161°
2026-05-06 09:16 50.12845 17.92838 34832 ft 438 kts 161°
2026-05-06 09:17 50.07249 17.96673 34832 ft 438 kts 161°
2026-05-06 09:17 50.01707 18.00482 34832 ft 439 kts 161°
2026-05-06 09:18 49.96178 18.04451 34832 ft 439 kts 160°
2026-05-06 09:18 49.90647 18.08428 34832 ft 439 kts 160°
2026-05-06 09:19 49.85113 18.12391 34832 ft 439 kts 160°
2026-05-06 09:19 49.79578 18.16343 34860 ft 439 kts 160°
2026-05-06 09:20 49.74068 18.20263 34859 ft 439 kts 160°
2026-05-06 09:20 49.68529 18.24196 34858 ft 437 kts 161°
2026-05-06 09:21 49.62958 18.28056 34858 ft 441 kts 163°
2026-05-06 09:21 49.57199 18.31332 34857 ft 444 kts 165°
2026-05-06 09:22 49.51429 18.34542 34858 ft 441 kts 165°
2026-05-06 09:22 49.45676 18.37743 34859 ft 441 kts 165°
2026-05-06 09:23 49.39914 18.40947 34888 ft 442 kts 165°
2026-05-06 09:23 49.34156 18.44144 34886 ft 442 kts 165°
2026-05-06 09:24 49.28424 18.47322 34886 ft 442 kts 165°
2026-05-06 09:24 49.22637 18.50523 34886 ft 442 kts 164°
2026-05-06 09:25 49.16910 18.53683 34886 ft 441 kts 164°
2026-05-06 09:25 49.11131 18.56865 34886 ft 442 kts 164°
2026-05-06 09:26 49.05376 18.60026 34886 ft 442 kts 164°
2026-05-06 09:26 48.99600 18.63190 34886 ft 442 kts 164°
2026-05-06 09:27 48.93842 18.66337 34886 ft 441 kts 165°
2026-05-06 09:27 48.88090 18.69471 34886 ft 441 kts 165°
2026-05-06 09:28 48.82324 18.72606 34885 ft 441 kts 165°
2026-05-06 09:28 48.76532 18.75747 34888 ft 441 kts 165°
2026-05-06 09:29 48.70761 18.78869 34910 ft 446 kts 165°
2026-05-06 09:29 48.64930 18.82017 34909 ft 446 kts 165°
2026-05-06 09:30 48.59116 18.85149 34909 ft 445 kts 165°
2026-05-06 09:30 48.53313 18.88267 34909 ft 445 kts 165°
2026-05-06 09:31 48.47472 18.91397 34909 ft 445 kts 165°
2026-05-06 09:31 48.41678 18.94495 34909 ft 445 kts 165°
2026-05-06 09:32 48.35847 18.97604 34909 ft 445 kts 165°
2026-05-06 09:32 48.30039 19.00693 34909 ft 445 kts 165°
2026-05-06 09:33 48.24218 19.03783 34910 ft 445 kts 165°
2026-05-06 09:33 48.18383 19.06872 34914 ft 445 kts 165°
2026-05-06 09:34 48.12557 19.09949 34914 ft 445 kts 165°
2026-05-06 09:34 48.06749 19.13009 34914 ft 445 kts 165°
2026-05-06 09:35 48.00922 19.16071 34941 ft 444 kts 165°
2026-05-06 09:35 47.95099 19.19124 34940 ft 445 kts 165°
2026-05-06 09:36 47.89302 19.22157 34940 ft 445 kts 165°
2026-05-06 09:36 47.83477 19.25196 34940 ft 445 kts 165°
2026-05-06 09:37 47.77638 19.28234 34941 ft 447 kts 165°
2026-05-06 09:37 47.71770 19.31282 34939 ft 449 kts 165°
2026-05-06 09:38 47.65888 19.34328 34940 ft 450 kts 165°
2026-05-06 09:38 47.59970 19.37388 34940 ft 449 kts 165°
2026-05-06 09:39 47.54091 19.40419 34940 ft 449 kts 165°
2026-05-06 09:39 47.48189 19.43455 34940 ft 449 kts 165°
2026-05-06 09:40 47.42296 19.46479 34940 ft 449 kts 165°
2026-05-06 09:40 47.33437 19.51011 34940 ft 449 kts 165°
2026-05-06 09:41 47.27537 19.54021 34940 ft 449 kts 165°
2026-05-06 09:41 47.21638 19.57023 34964 ft 449 kts 165°
2026-05-06 09:42 47.15710 19.60031 34967 ft 451 kts 165°
2026-05-06 09:42 47.09827 19.63012 34966 ft 449 kts 165°
2026-05-06 09:43 47.03888 19.66013 34967 ft 449 kts 165°
2026-05-06 09:43 46.98010 19.68975 34967 ft 449 kts 165°
2026-05-06 09:44 46.92115 19.71940 34967 ft 449 kts 165°
2026-05-06 09:44 46.86223 19.74896 34967 ft 449 kts 165°
2026-05-06 09:45 46.80324 19.77847 34968 ft 453 kts 165°
2026-05-06 09:45 46.74348 19.80832 34966 ft 454 kts 165°
2026-05-06 09:46 46.68415 19.83789 34967 ft 454 kts 165°
2026-05-06 09:46 46.62427 19.86765 34967 ft 454 kts 165°
2026-05-06 09:47 46.56479 19.89715 34967 ft 454 kts 165°
2026-05-06 09:47 46.50491 19.92678 34967 ft 454 kts 165°
2026-05-06 09:48 46.44513 19.95629 34967 ft 454 kts 165°
2026-05-06 09:48 46.38570 19.98556 34967 ft 454 kts 165°
2026-05-06 09:49 46.32617 20.01480 34967 ft 454 kts 165°
2026-05-06 09:49 46.26615 20.04422 34967 ft 454 kts 165°
2026-05-06 09:50 46.20668 20.07385 34966 ft 456 kts 163°
2026-05-06 09:50 46.14925 20.11202 34968 ft 461 kts 154°
2026-05-06 09:51 46.09393 20.15899 35024 ft 463 kts 153°
2026-05-06 09:51 46.03910 20.20758 35021 ft 463 kts 152°
2026-05-06 09:52 45.98441 20.25637 35021 ft 462 kts 152°
2026-05-06 09:52 45.92994 20.30500 35022 ft 467 kts 151°
2026-05-06 09:53 45.87467 20.35431 35020 ft 468 kts 151°
2026-05-06 09:53 45.81960 20.40340 35020 ft 467 kts 151°
2026-05-06 09:54 45.76445 20.45247 35021 ft 467 kts 151°
2026-05-06 09:54 45.70924 20.50148 35021 ft 469 kts 151°
2026-05-06 09:55 45.65346 20.55088 35021 ft 470 kts 151°
2026-05-06 09:55 45.59796 20.59995 35021 ft 469 kts 151°
2026-05-06 09:56 45.54277 20.64862 35021 ft 469 kts 151°
2026-05-06 09:56 45.48719 20.69756 35021 ft 469 kts 152°
2026-05-06 09:57 45.43192 20.74610 35021 ft 469 kts 152°
2026-05-06 09:57 45.37647 20.79467 35021 ft 471 kts 152°
2026-05-06 09:58 45.32093 20.84319 35021 ft 473 kts 152°
2026-05-06 09:58 45.26487 20.89208 35021 ft 472 kts 152°
2026-05-06 09:59 45.20950 20.94022 35021 ft 472 kts 152°
2026-05-06 09:59 45.15353 20.98879 35021 ft 472 kts 152°
2026-05-06 10:00 45.09754 21.03725 35021 ft 472 kts 152°
2026-05-06 10:00 45.04149 21.08565 35021 ft 472 kts 152°
2026-05-06 10:01 44.98555 21.13384 35021 ft 472 kts 152°
2026-05-06 10:01 44.92976 21.18179 35021 ft 472 kts 152°
2026-05-06 10:02 44.87358 21.22996 35021 ft 472 kts 151°
2026-05-06 10:02 44.81767 21.27779 35021 ft 474 kts 151°
2026-05-06 10:03 44.76085 21.32627 35021 ft 479 kts 151°
2026-05-06 10:03 44.70410 21.37460 35021 ft 478 kts 151°
2026-05-06 10:04 44.64728 21.42287 35021 ft 477 kts 151°
2026-05-06 10:04 44.59032 21.47115 35021 ft 477 kts 151°
2026-05-06 10:05 44.53368 21.51904 35021 ft 477 kts 151°
2026-05-06 10:05 44.47675 21.56707 35021 ft 477 kts 151°
2026-05-06 10:06 44.42005 21.61479 35021 ft 477 kts 151°
2026-05-06 10:06 44.36339 21.66239 35021 ft 477 kts 152°
2026-05-06 10:07 44.30620 21.71036 35021 ft 477 kts 152°
2026-05-06 10:07 44.24951 21.75779 35021 ft 477 kts 152°
2026-05-06 10:08 44.19238 21.80545 35050 ft 483 kts 152°
2026-05-06 10:08 44.13471 21.85345 35047 ft 482 kts 152°
2026-05-06 10:09 44.07745 21.90100 35048 ft 481 kts 152°
2026-05-06 10:09 44.02014 21.94847 35048 ft 481 kts 152°
2026-05-06 10:10 43.96248 21.99612 35048 ft 481 kts 152°
2026-05-06 10:10 43.90521 22.04334 35048 ft 481 kts 152°
2026-05-06 10:11 43.84750 22.09082 35048 ft 481 kts 152°
2026-05-06 10:11 43.78991 22.13808 35048 ft 481 kts 152°
2026-05-06 10:12 43.73241 22.18517 35048 ft 481 kts 151°
2026-05-06 10:12 43.67483 22.23221 35048 ft 482 kts 151°
2026-05-06 10:13 43.61740 22.27902 35048 ft 485 kts 151°
2026-05-06 10:13 43.55884 22.32664 35048 ft 487 kts 151°
2026-05-06 10:14 43.50106 22.37354 35048 ft 486 kts 151°
2026-05-06 10:14 43.44273 22.42076 35048 ft 485 kts 151°
2026-05-06 10:15 43.38432 22.46795 35048 ft 486 kts 151°
2026-05-06 10:15 43.32617 22.51481 35048 ft 486 kts 151°
2026-05-06 10:16 43.26773 22.56181 35048 ft 486 kts 151°
2026-05-06 10:16 43.20982 22.60827 35048 ft 486 kts 151°
2026-05-06 10:17 43.15124 22.65517 35048 ft 486 kts 152°
2026-05-06 10:17 43.09310 22.70168 35076 ft 485 kts 152°
2026-05-06 10:18 43.03504 22.74801 35075 ft 486 kts 152°
2026-05-06 10:18 42.97608 22.79492 35077 ft 490 kts 152°
2026-05-06 10:19 42.91956 22.84657 35076 ft 491 kts 146°
2026-05-06 10:19 42.86391 22.90031 35075 ft 490 kts 146°
2026-05-06 10:20 42.80821 22.95365 35075 ft 490 kts 146°
2026-05-06 10:20 42.75230 23.00684 35075 ft 491 kts 146°
2026-05-06 10:21 42.69635 23.05984 35076 ft 493 kts 146°
2026-05-06 10:21 42.64021 23.11286 35075 ft 492 kts 146°
2026-05-06 10:22 42.58372 23.16606 35075 ft 492 kts 146°
2026-05-06 10:22 42.52753 23.21883 35075 ft 492 kts 146°
2026-05-06 10:23 42.47135 23.27146 35075 ft 493 kts 146°
2026-05-06 10:23 42.41498 23.32415 35075 ft 494 kts 146°
2026-05-06 10:24 42.35852 23.37681 35075 ft 493 kts 146°
2026-05-06 10:24 42.30227 23.42915 35075 ft 493 kts 146°
2026-05-06 10:25 42.24555 23.48181 35075 ft 493 kts 146°
2026-05-06 10:25 42.18884 23.53434 35077 ft 499 kts 146°
2026-05-06 10:26 42.13166 23.58718 35074 ft 498 kts 146°
2026-05-06 10:26 42.07453 23.63986 35075 ft 497 kts 146°
2026-05-06 10:27 42.01743 23.69247 35075 ft 497 kts 147°
2026-05-06 10:27 41.96028 23.74502 35075 ft 498 kts 147°
2026-05-06 10:28 41.90326 23.79730 35045 ft 496 kts 146°
2026-05-06 10:28 41.84647 23.84923 35048 ft 495 kts 146°
2026-05-06 10:29 41.78950 23.90121 35048 ft 496 kts 146°
2026-05-06 10:29 41.73250 23.95309 35047 ft 497 kts 146°
2026-05-06 10:30 41.67544 24.00490 35048 ft 501 kts 146°
2026-05-06 10:30 41.61763 24.05728 35047 ft 500 kts 146°
2026-05-06 10:31 41.55930 24.10695 35047 ft 499 kts 152°
2026-05-06 10:31 41.49700 24.14708 35077 ft 498 kts 158°
2026-05-06 10:32 41.43372 24.18443 35075 ft 498 kts 158°
2026-05-06 10:32 41.37001 24.22130 35075 ft 498 kts 158°
2026-05-06 10:33 41.30679 24.25749 35076 ft 497 kts 158°
2026-05-06 10:33 41.24392 24.29325 35073 ft 488 kts 158°
2026-05-06 10:34 41.18082 24.32896 35078 ft 498 kts 158°
2026-05-06 10:34 41.11686 24.36505 35074 ft 497 kts 158°
2026-05-06 10:35 41.05321 24.40086 35075 ft 495 kts 158°
2026-05-06 10:35 40.98992 24.43637 35075 ft 496 kts 158°
2026-05-06 10:36 40.92647 24.47190 35075 ft 496 kts 158°
2026-05-06 10:36 40.86287 24.50743 35075 ft 496 kts 158°
2026-05-06 10:37 40.79935 24.54284 35075 ft 496 kts 158°
2026-05-06 10:37 40.73591 24.57813 35074 ft 496 kts 158°
2026-05-06 10:38 40.67201 24.61359 35076 ft 501 kts 159°
2026-05-06 10:38 40.60783 24.64914 35074 ft 500 kts 159°
2026-05-06 10:39 40.54410 24.68445 35075 ft 499 kts 159°
2026-05-06 10:39 40.48006 24.71983 35075 ft 499 kts 159°
2026-05-06 10:40 40.41638 24.75493 35075 ft 498 kts 159°
2026-05-06 10:40 40.35297 24.78978 35073 ft 490 kts 159°
2026-05-06 10:41 40.29042 24.82408 35076 ft 491 kts 159°
2026-05-06 10:41 40.22708 24.85874 35074 ft 494 kts 159°
2026-05-06 10:42 40.16369 24.89335 35075 ft 499 kts 159°
2026-05-06 10:42 40.10001 24.92805 35074 ft 497 kts 159°
2026-05-06 10:43 40.03634 24.96268 35075 ft 496 kts 159°
2026-05-06 10:44 39.94094 25.01442 35075 ft 497 kts 159°
2026-05-06 10:44 39.87718 25.04892 35075 ft 497 kts 159°
2026-05-06 10:45 39.81384 25.08312 35075 ft 497 kts 159°
2026-05-06 10:45 39.75007 25.11748 35075 ft 497 kts 159°
2026-05-06 10:46 39.68623 25.15180 35076 ft 501 kts 159°
2026-05-06 10:46 39.62149 25.18655 35074 ft 501 kts 159°
2026-05-06 10:47 39.55768 25.22073 35075 ft 500 kts 159°
2026-05-06 10:47 39.49347 25.25505 35075 ft 500 kts 159°
2026-05-06 10:48 39.42962 25.28912 35073 ft 493 kts 159°
2026-05-06 10:48 39.36636 25.32280 35076 ft 494 kts 159°
2026-05-06 10:49 39.30283 25.35655 35104 ft 495 kts 159°
2026-05-06 10:49 39.23932 25.39023 35101 ft 495 kts 159°
2026-05-06 10:50 39.17501 25.42426 35104 ft 502 kts 159°
2026-05-06 10:50 39.11048 25.45834 35056 ft 501 kts 159°
2026-05-06 10:51 39.04613 25.49227 34919 ft 500 kts 159°
2026-05-06 10:51 38.98144 25.52630 34782 ft 500 kts 159°
2026-05-06 10:52 38.91714 25.56006 34707 ft 500 kts 159°
2026-05-06 10:52 38.85250 25.59394 34846 ft 500 kts 159°
2026-05-06 10:53 38.78800 25.62767 34983 ft 501 kts 159°
2026-05-06 10:53 38.72409 25.66104 35101 ft 501 kts 160°
2026-05-06 10:54 38.65960 25.69471 35102 ft 502 kts 160°
2026-05-06 10:54 38.59520 25.72825 35102 ft 501 kts 160°
2026-05-06 10:55 38.53041 25.76190 35103 ft 500 kts 160°
2026-05-06 10:55 38.46656 25.79498 35101 ft 495 kts 160°
2026-05-06 10:56 38.40294 25.82787 35103 ft 496 kts 160°
2026-05-06 10:56 38.33903 25.86085 35102 ft 497 kts 160°
2026-05-06 10:57 38.27548 25.89357 35102 ft 496 kts 160°
2026-05-06 10:57 38.21096 25.92504 35102 ft 497 kts 163°
2026-05-06 10:58 38.14574 25.95454 35102 ft 499 kts 163°
2026-05-06 10:58 38.08055 25.98406 35102 ft 498 kts 163°
2026-05-06 10:59 38.01551 26.01354 35102 ft 498 kts 163°
2026-05-06 10:59 37.95014 26.04315 35102 ft 498 kts 163°
2026-05-06 11:00 37.88504 26.07261 35102 ft 498 kts 163°
2026-05-06 11:00 37.81970 26.10215 35102 ft 498 kts 162°
2026-05-06 11:01 37.75620 26.13674 35102 ft 501 kts 154°
2026-05-06 11:01 37.69772 26.18436 35106 ft 504 kts 145°
2026-05-06 11:02 37.64104 26.23671 35102 ft 504 kts 144°
2026-05-06 11:02 37.58529 26.28882 35101 ft 501 kts 144°
2026-05-06 11:03 37.52957 26.34105 35019 ft 502 kts 144°
2026-05-06 11:03 37.50117 26.36768 34778 ft 503 kts 144°
2026-05-06 11:03 37.47337 26.39374 34527 ft 502 kts 144°
2026-05-06 11:03 37.44540 26.41995 34243 ft 501 kts 144°
2026-05-06 11:04 37.41742 26.44616 33870 ft 502 kts 144°
2026-05-06 11:04 37.38979 26.47201 33500 ft 501 kts 143°
2026-05-06 11:04 37.36187 26.49813 33106 ft 502 kts 143°
2026-05-06 11:04 37.33387 26.52430 32664 ft 503 kts 143°
2026-05-06 11:05 37.30594 26.55038 32190 ft 503 kts 143°
2026-05-06 11:05 37.27778 26.57666 31712 ft 503 kts 143°
2026-05-06 11:05 37.24980 26.60273 31216 ft 504 kts 143°
2026-05-06 11:05 37.22136 26.62922 30694 ft 509 kts 143°
2026-05-06 11:06 37.19302 26.65559 30121 ft 509 kts 144°
2026-05-06 11:06 37.16506 26.68162 29522 ft 502 kts 143°
2026-05-06 11:06 37.13731 26.70744 28945 ft 494 kts 144°
2026-05-06 11:06 37.10974 26.73306 28343 ft 488 kts 144°
2026-05-06 11:07 37.08268 26.75817 27671 ft 483 kts 144°
2026-05-06 11:07 37.05613 26.78278 26965 ft 474 kts 144°
2026-05-06 11:07 37.02972 26.80724 26230 ft 466 kts 144°
2026-05-06 11:07 37.00391 26.83112 25502 ft 459 kts 144°
2026-05-06 11:08 36.97852 26.85458 24771 ft 451 kts 144°
2026-05-06 11:08 36.95354 26.87764 24041 ft 445 kts 144°
2026-05-06 11:08 36.92907 26.90022 23366 ft 438 kts 144°
2026-05-06 11:08 36.90492 26.92247 22695 ft 434 kts 144°
2026-05-06 11:09 36.88069 26.94478 22036 ft 431 kts 144°
2026-05-06 11:09 36.85664 26.96690 21401 ft 427 kts 144°
2026-05-06 11:09 36.83294 26.98869 20777 ft 423 kts 144°
2026-05-06 11:09 36.80962 27.01011 20181 ft 419 kts 144°
2026-05-06 11:10 36.78616 27.03165 19610 ft 416 kts 144°
2026-05-06 11:10 36.76301 27.05288 19092 ft 412 kts 143°
2026-05-06 11:10 36.74010 27.07387 18588 ft 411 kts 144°
2026-05-06 11:10 36.71704 27.09499 18110 ft 410 kts 143°
2026-05-06 11:11 36.69557 27.11745 17735 ft 405 kts 135°
2026-05-06 11:11 36.67697 27.14365 17583 ft 399 kts 124°
2026-05-06 11:11 36.66312 27.17314 17411 ft 395 kts 114°
2026-05-06 11:11 36.65166 27.20398 17219 ft 394 kts 111°
2026-05-06 11:12 36.64065 27.23521 16999 ft 392 kts 111°
2026-05-06 11:12 36.62972 27.26641 16718 ft 390 kts 111°
2026-05-06 11:12 36.61901 27.29697 16348 ft 387 kts 110°
2026-05-06 11:12 36.60833 27.32740 15970 ft 383 kts 110°
2026-05-06 11:13 36.59827 27.35834 15588 ft 379 kts 107°
2026-05-06 11:13 36.58967 27.38894 15207 ft 377 kts 105°
2026-05-06 11:13 36.58116 27.41986 14785 ft 375 kts 105°
2026-05-06 11:13 36.57275 27.45033 14306 ft 371 kts 105°
2026-05-06 11:14 36.56438 27.48037 13809 ft 368 kts 105°
2026-05-06 11:14 36.55610 27.51003 13293 ft 364 kts 105°
2026-05-06 11:14 36.54770 27.53999 12766 ft 360 kts 105°
2026-05-06 11:14 36.53949 27.56923 12230 ft 357 kts 105°
2026-05-06 11:15 36.53135 27.59817 11700 ft 353 kts 105°
2026-05-06 11:15 36.52331 27.62666 11178 ft 350 kts 105°
2026-05-06 11:15 36.51538 27.65479 10714 ft 342 kts 106°
2026-05-06 11:15 36.50760 27.68226 10465 ft 325 kts 106°
2026-05-06 11:16 36.50027 27.70812 10220 ft 309 kts 105°
2026-05-06 11:16 36.49334 27.73261 10024 ft 302 kts 105°
2026-05-06 11:16 36.48639 27.75724 9690 ft 302 kts 105°
2026-05-06 11:16 36.47952 27.78151 9259 ft 296 kts 105°
2026-05-06 11:17 36.47261 27.80587 8845 ft 292 kts 106°
2026-05-06 11:17 36.46595 27.82932 8448 ft 289 kts 106°
2026-05-06 11:17 36.45933 27.85262 8042 ft 286 kts 106°
2026-05-06 11:17 36.45271 27.87588 7652 ft 283 kts 106°
2026-05-06 11:18 36.44613 27.89897 7309 ft 279 kts 106°
2026-05-06 11:18 36.44049 27.92163 6983 ft 274 kts 96°
2026-05-06 11:18 36.44091 27.94450 6787 ft 263 kts 75°
2026-05-06 11:18 36.44545 27.96657 6671 ft 261 kts 71°
2026-05-06 11:19 36.45070 27.98821 6472 ft 260 kts 70°
2026-05-06 11:19 36.45598 28.00943 6270 ft 259 kts 70°
2026-05-06 11:19 36.46133 28.03074 6068 ft 258 kts 70°
2026-05-06 11:19 36.46661 28.05161 5703 ft 249 kts 70°
2026-05-06 11:20 36.47171 28.07164 5307 ft 238 kts 70°
2026-05-06 11:20 36.47671 28.09101 4898 ft 230 kts 70°
2026-05-06 11:20 36.48151 28.10941 4533 ft 220 kts 70°
2026-05-06 11:20 36.48612 28.12722 4123 ft 216 kts 70°
2026-05-06 11:21 36.49009 28.14528 3702 ft 216 kts 84°
2026-05-06 11:21 36.48701 28.16335 3299 ft 215 kts 120°
2026-05-06 11:21 36.47654 28.17580 2933 ft 207 kts 152°
2026-05-06 11:21 36.46396 28.18300 2605 ft 192 kts 159°
2026-05-06 11:22 36.45166 28.18704 2239 ft 183 kts 179°
2026-05-06 11:22 36.43977 28.18528 1853 ft 166 kts 206°
2026-05-06 11:22 36.43132 28.17696 1455 ft 149 kts 242°
2026-05-06 11:22 36.42780 28.16568 1166 ft 136 kts 256°
2026-05-06 11:23 36.42525 28.15454 884 ft 132 kts 255°
2026-05-06 11:23 36.42220 28.14347 726 ft 139 kts 251°
2026-05-06 11:23 36.41887 28.13239 502 ft 134 kts 251°
2026-05-06 11:23 36.41565 28.12145 351 ft 136 kts 251°
2026-05-06 11:24 36.41243 28.11035 179 ft 135 kts 251°
2026-05-06 11:24 36.40929 28.09963 24 ft 124 kts 250°
2026-05-06 11:24 36.40705 28.09197 28 ft 65 kts 249°
2026-05-06 11:24 36.40568 28.08734 26 ft 51 kts 251°
2026-05-06 11:25 36.40453 28.08342 20 ft 44 kts 250°
2026-05-06 11:25 36.40362 28.08056 19 ft 21 kts 235°
2026-05-06 11:25 36.40265 28.07943 20 ft 16 kts 220°
2026-05-06 11:25 36.40213 28.07889 21 ft 7 kts 219°
2026-05-06 11:26 36.40169 28.07874 22 ft 7 kts 156°
2026-05-06 11:26 36.40154 28.07935 22 ft 9 kts 79°
2026-05-06 11:26 36.40179 28.08025 22 ft 12 kts 69°
2026-05-06 11:26 36.40214 28.08141 22 ft 15 kts 69°
2026-05-06 11:27 36.40253 28.08281 22 ft 18 kts 70°
2026-05-06 11:27 36.40301 28.08438 24 ft 20 kts 69°
2026-05-06 11:27 36.40348 28.08602 27 ft 19 kts 70°
2026-05-06 11:27 36.40392 28.08753 30 ft 16 kts 72°
2026-05-06 11:28 36.40341 28.08825 35 ft 8 kts 130°
2026-05-06 11:28 36.40343 28.08884 36 ft 6 kts 74°
2026-05-06 11:28 36.40356 28.08937 37 ft 6 kts 70°
2026-05-06 11:28 36.40373 28.08996 37 ft 8 kts 70°
2026-05-06 11:29 36.40395 28.09068 38 ft 9 kts 70°
2026-05-06 11:29 36.40418 28.09147 38 ft 8 kts 70°
2026-05-06 11:29 36.40438 28.09217 38 ft 9 kts 69°
2026-05-06 11:29 36.40453 28.09289 37 ft 7 kts 111°
2026-05-06 11:30 36.40425 28.09312 38 ft 3 kts 160°
2026-05-06 11:30 36.40410 28.09318 39 ft 0 kts 161°
2026-05-06 11:30 36.40408 28.09319 39 ft 0 kts 161°